Simultaneous Nadir Overpasses (SNOs) Predictions

Prediction of SNOs between NOAA-19 and TERRA Satellite Orbit:

Table of predicted SNOs for the next 14.0 days since TLE Epoch: 9/16/2023
Index Date (NOAA-19) Time (NOAA-19) Lat,Lon (NOAA-19) SZA (NOAA-19 ) Date (TERRA) Time (TERRA) Lat,Lon (TERRA) SZA (TERRA ) Distance(km) Time Diff (sec)
1 09/17/2023 21:41:38 80.81,-114.16 80.15 09/17/2023 21:41:50 80.81,-114.20 80.15 0.76 12
2 09/20/2023 01:32:07 -80.80, 8.15 99.02 09/20/2023 01:32:00 -80.79, 8.00 99.05 3.15 7
3 09/22/2023 04:31:42 -80.66, -40.63 98.63 09/22/2023 04:32:56 -80.51, -40.15 98.69 18.86 74
4 09/22/2023 05:22:26 80.80, 130.44 81.82 09/22/2023 05:22:09 80.79, 130.40 81.80 1.47 17
5 09/24/2023 08:21:52 80.77, 84.91 82.59 09/24/2023 08:22:56 80.77, 84.99 82.61 1.53 64
6 09/24/2023 09:12:53 -80.81,-106.79 97.29 09/24/2023 09:12:17 -80.81,-106.92 97.31 2.25 36
7 09/26/2023 12:12:19 -80.78,-152.49 96.54 09/26/2023 12:13:04 -80.78,-152.42 96.52 1.39 45
8 09/26/2023 13:03:12 80.80, 15.58 83.57 09/26/2023 13:02:25 80.80, 15.46 83.54 2.18 47
9 09/28/2023 16:02:38 80.78, -30.05 84.32 09/28/2023 16:03:11 80.79, -29.88 84.35 3.36 33



Historial Predications of SNOs between NOAA-19 and TERRA
